QPF
0.00 0.00 0.00 0.00 0.00 0.00 0.00 0.00 0.00 0.00 0.00 0.00 0.00 0.00 0.00 0.00 0.00 0.00 0.00 0.00 0.00 0.00 0.00 0.00 0.00 0.00 0.00 0.00 0.00 0.00 0.00 0.00 0.00 0.00 0.00 0.00 0.00 0.00 0.00 0.00 0.00 0.00 0.00
0.00 0.00 0.00 0.00 0.00 0.00 0.00 0.00 0.00 0.00 0.00 0.00 0.00 0.00 0.00 0.00 0.00 0.00 0.00 0.00 0.00 0.00 0.00 0.00 0.00 0.00 0.00 0.00 0.00 0.00 0.00 0.00 0.00 0.00 0.00 0.00 0.00 0.00 0.00 0.00 0.00 0.00 0.00
0.00 0.00 0.00 0.00 0.00 0.00 0.00 0.00 0.00 0.00 0.00 0.00 0.00 0.00 0.00 0.00 0.00 0.00 0.00 0.00 0.00 0.00 0.00 0.00 0.00 0.00 0.00 0.00 0.00 0.00 0.00 0.00 0.00 0.00 0.00 0.00 0.00 0.00 0.00 0.00 0.00 0.00 0.00
0.00 0.00 0.00 0.00 0.00 0.00 0.00 0.00 0.00 0.00 0.00 0.00 0.00 0.00 0.00 0.00 0.00 0.00 0.00 0.00 0.00 0.00 0.00 0.00 0.00 0.00 0.00 0.00 0.00 0.00 0.00 0.00 0.00 0.00 0.00 0.00 0.00 0.00 0.00 0.00 0.00 0.00 0.00
0.00 0.00 0.00 0.00 0.00 0.00 0.00 0.00 0.00 0.00 0.00 0.00 0.00 0.00 0.00 0.00 0.00 0.00 0.00 0.00 0.00 0.00 0.00 0.00 0.00 0.00 0.00 0.00 0.00 0.00 0.00 0.00 0.00 0.00 0.00 0.00 0.00 0.00 0.00 0.00 0.00 0.00 0.00
0.00 0.00 0.00 0.00 0.00 0.00 0.00 0.00 0.00 0.00 0.00 0.00 0.00 0.00 0.00 0.00 0.00 0.01 0.00 0.00 0.00 0.00 0.00 0.00 0.00 0.00 0.00 0.00 0.00 0.00 0.00 0.00 0.00 0.00 0.00 0.00 0.00 0.00 0.00 0.00 0.00 0.00 0.00
0.00 0.00 0.00 0.00 0.00 0.00 0.00 0.00 0.00 0.00 0.00 0.00 0.00 0.00 0.00 0.00 0.01 0.01 0.01 0.00 0.00 0.00 0.00 0.00 0.00 0.00 0.00 0.00 0.00 0.01 0.01 0.01 0.00 0.00 0.00 0.00 0.00 0.00 0.00 0.00 0.00 0.00 0.00
0.00 0.00 0.00 0.00 0.00 0.00 0.00 0.00 0.00 0.00 0.00 0.00 0.00 0.00 0.00 0.00 0.00 0.00 0.00 0.00 0.00 0.00 0.00 0.00 0.00 0.00 0.00 0.00 0.00 0.00 0.00 0.00 0.00 0.00 0.00 0.00 0.00 0.00 0.00 0.00 0.00 0.00 0.00
0.00 0.00 0.00 0.00 0.00 0.00 0.00 0.00 0.00 0.00 0.00 0.00 0.00 0.00 0.00 0.00 0.00 0.00 0.00 0.00 0.00 0.00 0.00 0.00 0.00 0.00 0.00 0.01 0.00 0.00 0.00 0.00 0.00 0.00 0.00 0.00 0.00 0.00 0.00 0.00 0.00 0.00 0.00
0.00 0.00 0.00 0.00 0.00 0.00 0.00 0.00 0.00 0.00 0.00 0.00 0.00 0.00 0.00 0.00 0.00 0.00 0.00 0.00 0.00 0.00 0.00 0.00 0.00 0.00 0.00 0.00 0.00 0.00 0.00 0.00 0.00 0.00 0.00 0.00 0.00 0.00 0.00 0.00 0.00 0.00 0.00
0.00 0.00 0.00 0.00 0.00 0.00 0.00 0.00 0.00 0.00 0.00 0.00 0.00 0.00 0.00 0.00 0.00 0.00 0.00 0.00 0.00 0.00 0.00 0.00 0.00 0.00 0.00 0.00 0.00 0.00 0.00 0.00 0.00 0.00 0.00 0.00 0.00 0.00 0.00 0.00 0.00 0.00 0.00
0.00 0.00 0.00 0.00 0.00 0.00 0.00 0.00 0.00 0.00 0.00 0.00 0.00 0.00 0.00 0.00 0.00 0.00 0.00 0.00 0.00 0.00 0.00 0.00 0.00 0.00 0.00 0.00 0.00 0.00 0.00 0.00 0.00 0.00 0.00 0.00 0.00 0.00 0.00 0.00 0.00 0.00 0.00
0.00 0.00 0.00 0.00 0.00 0.00 0.00 0.00 0.00 0.00 0.00 0.00 0.00 0.00 0.00 0.00 0.00 0.00 0.00 0.00 0.00 0.00 0.00 0.00 0.00 0.00 0.00 0.00 0.00 0.00 0.00 0.00 0.00 0.00 0.00 0.00 0.00 0.00 0.00 0.00 0.00 0.00 0.00
0.00 0.00 0.00 0.00 0.00 0.00 0.00 0.00 0.00 0.00 0.00 0.00 0.00 0.00 0.00 0.00 0.00 0.00 0.00 0.00 0.00 0.00 0.00 0.00 0.00 0.00 0.00 0.00 0.00 0.00 0.00 0.00 0.00 0.00 0.00 0.00 0.00 0.00 0.00 0.00 0.00 0.00 0.00
0.00 0.00 0.00 0.00 0.00 0.00 0.00 0.00 0.00 0.00 0.00 0.00 0.00 0.00 0.00 0.00 0.00 0.00 0.00 0.00 0.00 0.00 0.00 0.00 0.00 0.00 0.00 0.00 0.00 0.00 0.00 0.00 0.00 0.00 0.00 0.00 0.00 0.00 0.00 0.00 0.00 0.00 0.00
0.00 0.00 0.00 0.00 0.00 0.00 0.00 0.00 0.00 0.00 0.00 0.00 0.00 0.00 0.00 0.01 0.01 0.01 0.01 0.01 0.01 0.01 0.00 0.00 0.00 0.00 0.00 0.00 0.00 0.00 0.00 0.00 0.00 0.00 0.00 0.00 0.00 0.00 0.00 0.00 0.00 0.00 0.00
0.00 0.00 0.00 0.00 0.00 0.00 0.00 0.00 0.00 0.00 0.00 0.00 0.00 0.00 0.00 0.00 0.00 0.00 0.01 0.01 0.01 0.02 0.01 0.01 0.00 0.00 0.00 0.00 0.00 0.00 0.00 0.00 0.00 0.00 0.00 0.00 0.00 0.00 0.00 0.00 0.00 0.00 0.00
0.00 0.00 0.00 0.00 0.00 0.00 0.00 0.00 0.00 0.00 0.00 0.00 0.00 0.00 0.00 0.00 0.00 0.00 0.00 0.00 0.00 0.00 0.00 0.00 0.00 0.00 0.00 0.00 0.00 0.00 0.00 0.00 0.00 0.00 0.00 0.00 0.00 0.00 0.00 0.00 0.00 0.00 0.00
0.00 0.00 0.00 0.00 0.00 0.00 0.00 0.00 0.00 0.00 0.00 0.00 0.00 0.00 0.00 0.00 0.00 0.00 0.00 0.00 0.00 0.00 0.00 0.00 0.00 0.00 0.00 0.00 0.00 0.00 0.00 0.00 0.00 0.00 0.00 0.00 0.00 0.00 0.00 0.00 0.00 0.00 0.00
0.00 0.00 0.00 0.00 0.00 0.00 0.00 0.00 0.00 0.00 0.00 0.00 0.00 0.00 0.00 0.00 0.00 0.00 0.00 0.00 0.00 0.00 0.00 0.00 0.00 0.00 0.00 0.00 0.00 0.00 0.00 0.00 0.00 0.00 0.00 0.00 0.00 0.00 0.00 0.00 0.00 0.00 0.00
0.00 0.00 0.00 0.00 0.00 0.00 0.00 0.00 0.00 0.00 0.00 0.00 0.00 0.00 0.01 0.00 0.00 0.00 0.00 0.00 0.00 0.00 0.00 0.00 0.00 0.00 0.00 0.00 0.00 0.00 0.00 0.00 0.00 0.00 0.00 0.00 0.00 0.00 0.00 0.00 0.00 0.00 0.00
0.00 0.00 0.00 0.00 0.00 0.00 0.00 0.00 0.00 0.00 0.00 0.00 0.00 0.00 0.00 0.00 0.00 0.00 0.00 0.00 0.00 0.00 0.00 0.00 0.00 0.00 0.00 0.00 0.00 0.00 0.00 0.00 0.00 0.00 0.00 0.00 0.00 0.00 0.00 0.00 0.00 0.00 0.00
0.00 0.00 0.00 0.00 0.00 0.00 0.00 0.00 0.00 0.00 0.00 0.00 0.00 0.00 0.00 0.00 0.00 0.00 0.00 0.00 0.00 0.00 0.00 0.00 0.00 0.00 0.00 0.00 0.00 0.00 0.00 0.00 0.00 0.00 0.00 0.00 0.00 0.00 0.00 0.00 0.00 0.00 0.00
0.00 0.00 0.00 0.00 0.00 0.00 0.00 0.00 0.00 0.00 0.00 0.00 0.00 0.00 0.00 0.00 0.00 0.00 0.00 0.00 0.00 0.00 0.00 0.00 0.00 0.00 0.00 0.00 0.00 0.00 0.00 0.00 0.00 0.00 0.00 0.00 0.00 0.00 0.00 0.00 0.00 0.00 0.00
0.00 0.00 0.00 0.00 0.00 0.00 0.00 0.00 0.00 0.00 0.00 0.00 0.00 0.00 0.00 0.00 0.00 0.00 0.00 0.00 0.00 0.00 0.00 0.00 0.00 0.00 0.00 0.00 0.00 0.00 0.00 0.00 0.00 0.00 0.00 0.00 0.00 0.00 0.00 0.00 0.00 0.00 0.00
0.00 0.00 0.00 0.00 0.00 0.00 0.00 0.00 0.00 0.00 0.00 0.00 0.00 0.00 0.00 0.00 0.00 0.00 0.00 0.00 0.00 0.00 0.00 0.00 0.00 0.00 0.00 0.00 0.00 0.00 0.00 0.00 0.00 0.00 0.00 0.00 0.00 0.00 0.00 0.00 0.00 0.00 0.00
MSLP
1021.51 1020.78 1020.00 1019.33 1018.78 1018.36 1018.26 1018.29 1017.84 1017.62 1017.71 1017.57 1017.57 1018.01 1018.46 1018.76 1019.04 1019.39 1019.64 1019.88 1020.17 1020.45 1020.71 1020.82 1021.04 1021.19 1021.40 1021.55 1021.76 1022.07 1022.46 1022.81 1023.70 1024.60 1024.76 1024.92 1025.25 1025.42 1025.45 1025.59 1025.59 1025.61 1025.52
1023.20 1022.35 1021.61 1020.88 1020.12 1019.47 1019.23 1019.15 1018.75 1018.33 1017.99 1017.97 1017.97 1018.08 1018.27 1018.62 1018.96 1019.27 1019.69 1019.86 1020.08 1020.38 1020.55 1020.85 1020.99 1021.18 1021.43 1021.59 1021.72 1022.05 1022.26 1022.59 1023.13 1024.19 1024.80 1025.03 1025.06 1025.23 1025.36 1025.64 1025.54 1025.48 1025.55
1024.31 1023.55 1022.88 1022.27 1021.60 1021.01 1020.57 1020.00 1019.64 1019.11 1018.90 1018.64 1018.59 1018.59 1018.73 1018.87 1019.09 1019.35 1019.58 1019.94 1020.11 1020.25 1020.50 1020.79 1020.95 1021.12 1021.42 1021.71 1021.97 1022.22 1022.55 1022.56 1022.82 1023.30 1024.11 1024.52 1024.80 1025.14 1025.37 1025.41 1025.57 1025.64 1025.50
1025.38 1024.66 1024.06 1023.50 1022.98 1022.38 1021.90 1021.38 1020.65 1020.21 1019.85 1019.59 1019.46 1019.29 1019.29 1019.49 1019.63 1019.77 1020.02 1020.28 1020.42 1020.51 1020.61 1020.82 1020.91 1021.02 1021.23 1021.48 1021.83 1022.17 1022.52 1023.01 1022.99 1023.56 1023.80 1024.07 1024.02 1024.37 1024.83 1025.05 1025.46 1025.70 1025.73
1026.21 1025.65 1025.13 1024.58 1024.09 1023.66 1022.99 1022.37 1021.68 1021.22 1020.88 1020.62 1020.12 1019.82 1019.63 1019.76 1019.78 1019.85 1019.93 1020.08 1020.24 1020.43 1020.62 1020.83 1020.95 1021.04 1021.16 1021.26 1021.57 1022.02 1022.45 1022.79 1023.18 1023.52 1023.66 1023.77 1023.87 1024.14 1024.11 1024.37 1024.83 1025.35 1025.68
1027.10 1026.58 1026.05 1025.58 1025.03 1024.52 1023.67 1023.23 1022.67 1022.32 1021.78 1021.39 1021.08 1020.66 1020.41 1020.13 1019.95 1019.96 1019.94 1019.90 1020.09 1020.26 1020.28 1020.47 1020.83 1021.04 1021.06 1021.16 1021.27 1021.42 1021.82 1022.14 1022.59 1023.03 1023.27 1023.41 1023.62 1023.79 1023.91 1024.03 1024.39 1025.23 1025.61
1027.32 1026.87 1026.44 1025.87 1025.34 1024.76 1024.62 1024.00 1023.56 1023.32 1022.76 1022.04 1021.88 1021.49 1021.16 1020.93 1020.53 1020.21 1019.93 1019.76 1020.03 1020.17 1020.17 1020.23 1020.53 1020.91 1021.12 1021.19 1021.18 1021.12 1021.16 1021.28 1021.84 1022.31 1022.66 1022.96 1023.26 1023.50 1023.93 1024.17 1024.19 1024.42 1024.50
1027.72 1026.90 1026.54 1025.97 1025.62 1025.01 1024.53 1024.15 1023.56 1023.75 1023.48 1022.78 1022.41 1022.04 1021.66 1021.39 1021.06 1020.67 1020.41 1020.41 1020.45 1020.59 1020.47 1020.33 1020.39 1020.53 1020.88 1021.15 1021.23 1021.15 1021.20 1021.22 1021.27 1021.89 1022.47 1022.55 1022.83 1023.30 1023.52 1023.93 1024.14 1024.24 1024.46
1027.88 1027.23 1026.70 1026.44 1026.20 1025.56 1024.86 1024.23 1023.81 1023.75 1023.38 1023.18 1022.79 1022.15 1021.97 1021.63 1021.38 1021.09 1020.82 1020.79 1020.81 1020.80 1020.55 1020.72 1020.67 1020.67 1020.73 1021.02 1020.93 1021.00 1021.08 1021.30 1021.18 1021.51 1021.98 1022.60 1022.47 1022.87 1023.01 1023.53 1023.79 1024.17 1024.13
1027.91 1027.28 1026.81 1026.40 1026.25 1025.73 1025.07 1024.33 1023.93 1023.66 1023.35 1023.33 1022.93 1022.36 1022.01 1021.52 1021.33 1021.34 1021.11 1020.95 1020.91 1020.67 1020.70 1020.54 1020.56 1020.54 1020.48 1020.62 1020.72 1020.79 1020.91 1021.03 1021.13 1021.42 1021.98 1022.03 1022.41 1022.40 1022.32 1022.79 1023.04 1023.34 1023.69
1028.36 1027.79 1027.49 1026.86 1026.37 1025.74 1024.91 1024.07 1023.74 1023.72 1023.52 1023.31 1023.04 1022.55 1022.17 1021.66 1021.30 1021.06 1020.91 1020.77 1020.82 1020.48 1020.28 1020.32 1020.09 1020.24 1020.31 1020.13 1020.10 1020.31 1020.35 1020.85 1020.87 1021.16 1021.37 1021.56 1021.65 1022.04 1022.42 1022.82 1023.01 1023.06 1023.20
1028.10 1027.60 1027.34 1026.70 1026.18 1025.47 1024.87 1024.21 1023.95 1023.96 1023.77 1023.61 1022.99 1022.56 1021.98 1021.45 1021.13 1020.82 1020.31 1020.09 1019.87 1020.07 1020.04 1019.77 1019.85 1019.97 1019.92 1019.57 1019.49 1019.59 1019.76 1020.01 1020.32 1020.54 1020.79 1021.09 1021.38 1021.55 1021.51 1022.13 1022.44 1022.78 1022.71
1028.32 1027.83 1027.29 1026.74 1026.40 1025.72 1024.77 1024.49 1024.51 1024.37 1023.83 1023.25 1022.79 1022.32 1021.77 1021.26 1020.76 1020.18 1019.69 1019.41 1019.55 1019.49 1019.24 1019.20 1019.18 1019.26 1019.39 1019.24 1019.21 1019.12 1019.05 1019.49 1020.01 1019.88 1020.23 1020.69 1020.94 1021.01 1021.15 1021.59 1021.83 1022.33 1022.48
1028.40 1027.96 1027.36 1026.58 1025.53 1024.85 1024.69 1024.33 1023.89 1023.51 1023.17 1022.88 1022.47 1021.94 1021.45 1020.98 1020.55 1020.14 1019.83 1019.69 1019.40 1019.05 1018.84 1018.81 1018.75 1018.65 1018.61 1018.85 1018.83 1018.90 1018.93 1019.23 1019.46 1019.72 1020.02 1020.45 1020.70 1020.97 1021.16 1021.39 1021.75 1021.82 1022.28
1028.13 1027.44 1026.73 1026.00 1025.49 1025.00 1024.58 1024.21 1023.79 1023.34 1023.02 1022.38 1021.94 1021.59 1021.09 1020.58 1020.14 1019.55 1019.13 1019.02 1018.86 1018.70 1018.54 1018.57 1018.62 1018.64 1018.59 1018.58 1018.78 1018.88 1018.92 1019.06 1019.22 1019.63 1019.89 1020.24 1020.62 1020.70 1021.02 1021.33 1021.44 1021.91 1022.27
1027.57 1026.91 1026.44 1025.81 1025.37 1024.90 1024.44 1023.89 1023.43 1022.80 1022.10 1021.43 1020.78 1020.15 1019.69 1019.14 1018.70 1018.35 1017.92 1017.55 1017.33 1017.30 1017.43 1017.60 1017.79 1017.82 1017.86 1017.98 1018.10 1018.30 1018.45 1018.65 1019.13 1019.64 1019.86 1020.18 1020.56 1020.75 1020.98 1021.52 1021.81 1021.93 1022.05
1027.10 1026.53 1025.96 1025.41 1025.02 1024.58 1024.16 1023.79 1023.25 1022.54 1021.99 1021.31 1020.64 1019.96 1019.27 1018.71 1018.16 1017.74 1017.40 1017.16 1016.73 1016.51 1016.52 1016.25 1016.44 1016.66 1016.86 1017.10 1017.46 1017.84 1018.10 1018.37 1018.91 1019.47 1019.88 1020.27 1020.68 1021.14 1021.45 1021.84 1022.04 1021.98 1022.12
1026.70 1025.99 1025.40 1025.07 1024.59 1024.11 1023.66 1023.24 1022.86 1022.44 1021.87 1021.26 1020.64 1019.96 1019.28 1018.58 1017.96 1017.45 1017.12 1016.80 1016.86 1016.93 1016.83 1016.62 1016.51 1016.40 1016.35 1016.66 1016.96 1017.40 1017.95 1018.58 1019.14 1019.68 1020.21 1020.66 1021.02 1021.48 1021.81 1022.06 1022.06 1022.10 1022.16
1026.16 1025.49 1024.80 1024.20 1023.75 1023.33 1022.77 1022.45 1022.12 1021.69 1021.22 1020.69 1020.18 1019.73 1019.20 1018.61 1017.87 1017.29 1016.97 1017.39 1017.52 1017.51 1017.31 1017.05 1016.77 1016.56 1016.71 1016.98 1017.17 1017.51 1018.08 1018.81 1019.47 1020.15 1020.71 1021.11 1021.53 1022.06 1022.27 1022.28 1022.21 1022.03 1021.85
1025.52 1024.57 1023.39 1022.88 1022.61 1022.23 1021.87 1021.54 1021.22 1020.95 1020.62 1020.27 1019.93 1019.49 1019.09 1018.74 1018.28 1017.85 1017.61 1017.62 1017.61 1017.48 1017.34 1017.30 1017.15 1017.07 1017.04 1017.18 1017.47 1018.05 1018.80 1019.35 1019.97 1020.53 1021.04 1021.36 1021.66 1022.00 1022.40 1022.27 1022.16 1022.04 1021.84
1024.54 1023.96 1023.12 1022.08 1021.97 1021.67 1021.34 1020.96 1020.61 1020.33 1020.08 1019.79 1019.37 1018.98 1018.17 1017.60 1017.68 1017.49 1017.33 1017.35 1017.34 1017.19 1017.14 1017.06 1016.99 1017.08 1017.30 1017.59 1018.05 1018.56 1019.08 1019.62 1020.06 1020.52 1021.04 1021.35 1021.58 1022.32 1021.87 1021.86 1021.87 1021.78 1021.60
1023.40 1022.82 1022.29 1021.63 1021.19 1020.90 1020.62 1020.30 1020.05 1019.95 1019.72 1019.37 1019.03 1018.73 1017.94 1017.78 1017.89 1017.83 1017.57 1017.21 1016.92 1016.79 1016.73 1016.67 1016.72 1016.91 1017.09 1017.46 1017.99 1018.54 1019.09 1019.69 1020.04 1020.41 1020.81 1021.05 1021.27 1021.43 1021.48 1021.58 1021.53 1021.35 1021.09
1022.37 1022.00 1021.62 1021.24 1021.03 1020.59 1020.40 1020.06 1019.97 1019.78 1019.53 1019.24 1018.90 1018.56 1018.20 1018.05 1017.85 1017.56 1017.25 1017.01 1016.76 1016.45 1016.28 1016.25 1016.24 1016.48 1016.74 1017.16 1017.69 1018.15 1018.61 1018.96 1019.21 1019.77 1020.22 1020.56 1020.78 1020.85 1020.80 1021.04 1020.79 1020.70 1020.50
1022.40 1022.24 1021.85 1021.43 1021.05 1020.51 1020.27 1020.03 1019.69 1019.37 1019.06 1018.84 1018.60 1018.28 1018.00 1017.75 1017.42 1017.14 1016.88 1016.57 1016.32 1016.05 1015.78 1015.64 1015.61 1015.75 1016.30 1016.80 1017.35 1017.76 1018.01 1018.29 1018.68 1018.99 1019.36 1019.85 1020.04 1020.01 1019.87 1020.07 1019.95 1019.82 1019.69
1022.07 1021.99 1021.66 1021.26 1020.81 1020.39 1020.06 1019.72 1019.36 1019.06 1018.86 1018.58 1018.27 1017.99 1017.62 1017.27 1017.06 1016.82 1016.46 1016.17 1015.94 1015.64 1015.33 1015.05 1015.07 1015.29 1015.72 1016.33 1016.85 1017.17 1017.45 1017.34 1017.93 1018.08 1018.50 1018.90 1018.84 1018.82 1018.92 1018.94 1018.88 1018.76 1018.65
1021.79 1021.57 1021.27 1020.80 1020.36 1020.00 1019.63 1019.26 1019.05 1018.74 1018.45 1018.16 1017.84 1017.59 1017.28 1017.04 1016.75 1016.49 1016.21 1015.97 1015.64 1015.25 1014.98 1014.75 1014.73 1014.86 1015.31 1015.67 1015.93 1016.38 1016.47 1016.42 1016.42 1016.31 1016.39 1017.04 1017.28 1017.35 1017.46 1017.53 1017.51 1017.53 1017.40
Thickness
5455 5461 5468 5474 5479 5483 5484 5484 5487 5489 5488 5490 5490 5487 5485 5483 5481 5479 5478 5477 5476 5475 5474 5475 5474 5474 5473 5473 5473 5472 5471 5470 5467 5460 5460 5459 5458 5458 5458 5458 5459 5461 5462
5423 5430 5436 5442 5449 5456 5459 5459 5462 5466 5469 5470 5470 5470 5469 5467 5466 5464 5462 5462 5461 5460 5460 5459 5459 5459 5458 5458 5457 5457 5456 5455 5454 5448 5443 5443 5445 5445 5445 5444 5445 5446 5447
5395 5402 5407 5412 5418 5424 5429 5434 5438 5441 5443 5446 5447 5447 5447 5447 5446 5446 5445 5443 5443 5443 5443 5442 5442 5442 5441 5439 5438 5438 5437 5440 5439 5437 5431 5429 5429 5429 5429 5429 5430 5430 5431
5366 5373 5378 5383 5388 5394 5400 5405 5411 5414 5417 5420 5422 5424 5424 5423 5423 5424 5423 5422 5423 5425 5425 5424 5425 5425 5425 5423 5421 5419 5417 5417 5419 5417 5416 5415 5417 5415 5414 5415 5413 5413 5413
5338 5344 5349 5354 5359 5362 5369 5375 5381 5385 5389 5392 5398 5401 5404 5403 5403 5403 5404 5405 5406 5406 5405 5404 5405 5405 5405 5405 5404 5401 5399 5397 5395 5396 5398 5399 5400 5398 5402 5401 5400 5397 5396
5307 5313 5318 5323 5328 5333 5341 5344 5349 5354 5360 5365 5368 5372 5375 5379 5382 5382 5384 5387 5386 5386 5387 5387 5384 5384 5386 5386 5386 5386 5384 5382 5379 5378 5378 5380 5380 5381 5382 5384 5383 5378 5378
5282 5285 5290 5296 5301 5307 5309 5314 5318 5321 5328 5336 5338 5343 5345 5347 5353 5356 5362 5365 5364 5363 5364 5366 5364 5362 5361 5362 5363 5366 5367 5367 5363 5360 5361 5361 5360 5360 5359 5360 5362 5364 5366
5254 5262 5264 5269 5273 5279 5284 5288 5294 5293 5296 5304 5309 5313 5317 5318 5321 5326 5332 5332 5334 5334 5337 5339 5340 5340 5338 5336 5337 5339 5341 5343 5345 5343 5339 5341 5341 5338 5339 5337 5339 5343 5343
5231 5236 5240 5241 5242 5249 5256 5261 5265 5266 5270 5274 5279 5286 5287 5290 5292 5295 5300 5302 5302 5303 5307 5307 5310 5312 5312 5310 5313 5314 5316 5316 5320 5320 5319 5314 5318 5316 5319 5318 5321 5320 5325
5210 5213 5217 5220 5220 5224 5230 5236 5240 5243 5245 5245 5249 5254 5258 5264 5266 5265 5267 5271 5273 5277 5278 5282 5283 5285 5286 5286 5286 5288 5290 5292 5293 5294 5294 5297 5293 5297 5299 5301 5303 5305 5305
5184 5186 5187 5192 5196 5200 5206 5213 5216 5217 5219 5219 5223 5226 5229 5233 5236 5239 5240 5243 5246 5251 5255 5256 5259 5257 5259 5262 5263 5264 5270 5266 5268 5270 5273 5275 5279 5279 5276 5276 5278 5282 5286
5166 5168 5169 5172 5175 5182 5185 5189 5191 5191 5192 5193 5197 5200 5205 5208 5212 5213 5218 5221 5226 5228 5229 5234 5236 5236 5237 5242 5244 5247 5247 5247 5248 5249 5253 5255 5257 5260 5264 5259 5260 5261 5266
5144 5146 5148 5150 5151 5155 5161 5164 5164 5163 5168 5174 5179 5183 5186 5189 5194 5198 5202 5204 5204 5206 5211 5213 5215 5215 5217 5221 5223 5227 5230 5230 5229 5235 5236 5236 5237 5240 5242 5244 5245 5245 5247
5124 5125 5128 5132 5138 5142 5143 5146 5150 5149 5150 5155 5158 5163 5166 5169 5172 5175 5178 5180 5184 5187 5191 5193 5195 5198 5201 5201 5204 5206 5208 5209 5212 5215 5217 5217 5218 5219 5222 5225 5226 5230 5230
5103 5106 5110 5114 5117 5119 5121 5122 5125 5129 5130 5134 5137 5140 5144 5148 5153 5157 5162 5163 5165 5167 5170 5173 5175 5177 5180 5181 5182 5185 5187 5190 5193 5194 5197 5199 5199 5203 5204 5205 5210 5209 5210
5083 5086 5087 5092 5093 5094 5097 5100 5102 5108 5113 5118 5124 5129 5133 5138 5142 5145 5149 5153 5156 5157 5156 5159 5160 5162 5166 5168 5168 5170 5171 5173 5174 5174 5177 5178 5179 5182 5184 5182 5184 5188 5192
5058 5062 5064 5067 5068 5070 5072 5073 5079 5081 5086 5093 5098 5103 5109 5116 5120 5124 5128 5130 5136 5139 5140 5148 5150 5150 5151 5153 5153 5154 5155 5154 5153 5153 5154 5156 5158 5159 5162 5161 5162 5167 5169
5031 5036 5039 5040 5041 5042 5043 5047 5050 5056 5060 5063 5067 5074 5081 5087 5094 5099 5103 5105 5106 5109 5111 5118 5121 5127 5132 5131 5133 5133 5131 5130 5129 5129 5129 5130 5131 5133 5133 5136 5140 5142 5145
5004 5008 5011 5012 5014 5016 5021 5023 5026 5030 5035 5040 5042 5044 5050 5058 5066 5071 5074 5070 5071 5075 5078 5083 5089 5093 5095 5098 5101 5103 5103 5102 5102 5102 5101 5103 5104 5105 5106 5110 5114 5126 5128
4975 4980 4987 4988 4989 4991 4994 4998 5001 5003 5006 5011 5014 5018 5021 5025 5027 5031 5036 5037 5043 5049 5052 5053 5057 5060 5063 5066 5069 5069 5068 5070 5071 5071 5071 5074 5076 5078 5081 5085 5089 5091 5096
4953 4955 4958 4965 4964 4966 4969 4972 4975 4977 4981 4985 4991 4993 5002 5006 5004 5009 5015 5018 5019 5025 5028 5031 5034 5035 5036 5037 5037 5038 5040 5042 5042 5043 5045 5048 5050 5052 5057 5060 5064 5068 5071
4936 4936 4937 4939 4942 4945 4948 4951 4954 4957 4961 4967 4970 4972 4980 4982 4982 4986 4992 4998 5000 5003 5008 5012 5014 5015 5016 5017 5016 5016 5017 5017 5017 5019 5022 5025 5027 5031 5034 5037 5042 5046 5048
4923 4922 4921 4921 4922 4926 4927 4930 4933 4937 4942 4948 4951 4956 4960 4962 4966 4971 4976 4981 4985 4990 4993 4997 5000 5000 5001 5002 5002 5002 5001 5001 5003 5005 5005 5006 5009 5012 5015 5019 5023 5025 5026
4911 4908 4906 4907 4909 4914 4915 4917 4921 4927 4933 4932 4936 4942 4946 4951 4956 4961 4964 4968 4973 4977 4981 4985 4988 4990 4989 4988 4988 4989 4990 4990 4991 4992 4993 4993 4994 4998 5000 5003 5007 5011 5015
4906 4904 4902 4902 4904 4906 4908 4911 4914 4918 4922 4926 4930 4936 4939 4945 4947 4951 4955 4959 4962 4967 4971 4974 4977 4978 4978 4977 4977 4978 4978 4978 4979 4981 4983 4984 4985 4987 4990 4993 4997 5001 5004
4908 4905 4903 4903 4904 4905 4908 4911 4912 4915 4917 4922 4925 4928 4932 4935 4939 4942 4945 4949 4953 4957 4961 4964 4966 4967 4967 4968 4968 4968 4968 4970 4972 4975 4978 4979 4980 4983 4985 4988 4991 4993 4996